Location: Grand Lay
(47.3253°N, 0.9468°E)
Time: 18:53:34
(UTC+00:00)

NOSS 8 (H) - Pass Details

Date: 18 January 2026
Orbit: 355 x 1516 km, 63.3° (Epoch: 18 February)

Event Time Altitude Azimuth Distance (km) Brightness Sun altitude
Exits shadow 05:45:20 63° 241° (WSW) 457 4.1 -18.5°
Maximum altitude 05:45:25 63° 232° (SW) 457 4.1 -18.4°
Drops below altitude 10° 05:48:52 10° 151° (SSE) 1,631 7.8 -17.9°
Sets 05:51:16 0° 148° (SSE) 2,661 9.0 -17.5°
